Theta_e
311 315 310 309 306 310 309 310 311 311 311 312 310 311 312 313 311 310 310 309 308 307 306 305 304 304 303 303 300 298 297 296 294 293 292 291 291 290 290 289 289 289 289 288
312 312 312 311 311 310 310 310 310 310 310 311 311 311 311 311 309 308 307 307 307 306 305 304 303 303 300 299 298 297 296 294 293 292 291 291 290 290 289 289 289 289 288 288
309 309 307 307 308 309 310 311 309 308 308 309 308 310 311 310 309 308 307 307 306 305 304 303 302 300 299 297 297 296 294 293 292 291 290 290 290 289 289 289 289 288 288 287
306 306 301 307 307 309 310 310 309 309 309 309 309 309 310 310 309 308 307 306 304 303 302 300 300 298 297 297 295 294 293 292 291 290 290 290 289 289 288 288 288 288 288 287
305 306 307 308 308 307 307 307 308 307 307 308 308 309 306 307 308 307 306 304 303 302 300 299 298 297 296 295 294 293 292 291 290 290 290 289 289 288 288 288 288 287 287 286
306 306 306 307 307 307 306 304 307 308 307 306 307 304 303 305 306 305 303 302 301 299 299 298 296 295 294 293 292 291 290 290 290 289 289 289 288 288 288 288 287 287 287 286
303 306 308 308 307 307 306 306 308 308 307 307 305 306 304 303 303 302 301 300 299 298 296 295 294 294 293 291 291 290 289 289 289 289 288 288 288 288 287 287 287 286 286 286
302 301 308 308 306 306 305 307 308 307 307 306 305 304 302 302 301 301 299 298 296 295 294 293 292 291 291 290 289 289 289 288 288 287 287 286 287 287 286 286 286 286 285 284
306 306 307 307 307 308 308 308 307 307 305 306 303 302 301 300 299 298 297 296 295 295 293 292 291 290 289 289 288 288 287 287 286 285 285 286 285 285 285 285 283 283 284 284
307 309 307 308 308 308 308 308 307 306 306 305 303 301 299 299 298 297 295 295 293 293 292 291 290 289 288 287 287 286 286 284 284 286 285 285 284 284 283 282 281 282 282 282
307 307 307 306 306 307 307 307 306 305 304 303 301 299 299 297 295 294 294 293 292 291 289 288 288 287 286 285 284 283 283 286 285 285 284 283 283 283 281 280 280 281 281 281
306 309 308 307 306 307 307 306 305 304 301 300 300 298 297 294 293 293 293 291 289 288 287 287 285 283 282 282 282 285 286 285 284 283 283 282 281 281 280 280 279 280 280 280
309 310 308 307 306 306 306 304 303 301 300 298 295 296 295 293 292 290 289 288 287 286 285 283 282 282 283 284 285 285 284 282 282 282 282 282 281 280 279 279 279 280 279 279
310 309 305 305 303 303 304 301 300 298 296 296 294 293 293 291 289 289 288 286 284 283 282 282 283 284 285 284 283 283 282 281 281 281 281 281 279 278 278 279 279 278 278 278
308 308 306 303 301 301 300 299 298 296 295 293 292 291 289 288 287 285 284 283 282 282 282 283 284 283 283 283 282 282 281 280 280 280 279 278 277 278 278 278 277 277 277 276
306 306 303 302 300 299 298 297 297 293 293 291 290 289 287 284 283 283 282 282 282 283 283 284 283 283 282 281 281 280 279 279 279 278 277 277 277 277 277 276 275 275 275 276
303 299 300 298 298 297 297 296 296 292 291 290 289 286 284 283 283 282 282 282 282 283 283 283 282 281 280 279 278 278 278 277 277 276 276 276 276 275 274 274 274 274 274 274
305 302 301 300 298 296 294 294 292 291 290 289 285 284 283 282 282 282 282 282 282 282 282 281 281 279 278 278 277 277 276 276 276 275 275 274 273 273 274 273 273 273 273 273
303 300 299 298 297 296 293 291 290 290 288 287 283 283 282 282 281 281 282 282 282 281 281 280 279 277 277 277 276 276 275 275 274 274 273 273 273 273 272 272 272 272 272 272
300 299 298 296 295 295 292 290 289 288 287 284 282 282 281 281 281 281 281 281 281 280 279 278 277 277 276 276 275 275 274 273 273 272 272 272 272 272 272 272 272 272 273 273
298 297 296 294 293 292 291 289 288 287 283 282 282 282 282 281 281 281 280 280 279 279 278 277 276 276 276 275 274 274 273 272 272 271 271 272 272 272 273 273 273 273 273 273
296 295 294 293 291 289 288 288 286 283 282 282 282 282 282 282 281 281 280 279 278 278 277 276 276 275 274 274 273 272 272 271 271 271 272 272 272 273 273 273 273 273 273 273
295 294 292 291 289 287 286 283 282 282 282 283 282 282 282 281 281 279 279 278 278 277 276 275 275 274 274 273 272 272 271 271 272 272 272 272 273 273 273 273 273 273 273 274
291 291 289 287 285 283 282 283 284 284 283 283 283 282 281 280 279 279 279 278 277 276 275 275 274 273 273 272 272 271 271 272 272 273 273 273 273 273 273 273 273 274 274 275
289 286 285 283 283 283 284 284 284 284 284 283 282 281 280 279 279 278 278 277 276 275 275 274 273 272 272 272 271 271 272 272 272 272 273 273 272 272 273 273 273 274 275 276
285 284 286 286 286 286 285 284 284 283 282 281 281 280 279 279 278 278 277 276 275 275 274 273 272 272 272 272 271 271 272 273 273 273 273 272 272 272 273 273 273 275 276 277
285 287 287 286 286 285 284 283 281 280 280 280 279 279 278 278 278 277 276 275 275 274 273 272 272 272 272 271 271 271 273 273 273 273 272 272 272 273 273 273 274 275 277 278
Wind_Speed
4 4 4 5 5 7 7 8 7 12 7 10 4 1 9 19 26 32 32 34 34 31 25 20 15 9 5 6 9 9 11 13 14 15 17 18 20 22 26 29 21 22 25 24
3 4 8 5 9 9 10 8 9 12 18 19 22 26 16 26 30 30 32 31 27 23 19 13 8 5 5 6 8 11 13 14 14 16 19 19 23 27 31 24 20 23 22 21
4 3 3 5 10 14 6 5 5 7 10 7 7 12 21 27 30 32 29 26 22 17 13 9 5 5 7 8 11 13 15 15 17 18 20 24 27 30 28 21 21 22 21 26
2 3 1 7 5 6 10 10 8 7 5 9 3 10 14 22 28 27 26 23 20 15 10 5 4 6 9 12 14 15 15 16 17 20 23 26 29 30 25 22 23 24 27 27
3 3 6 7 0 2 4 2 2 5 8 20 25 26 16 21 25 26 24 20 16 11 6 2 5 9 11 14 12 13 15 17 20 24 26 26 28 29 24 24 24 26 23 28
2 3 5 6 2 1 3 4 7 8 13 21 15 4 3 19 22 23 20 16 12 8 2 2 5 7 11 11 13 16 17 20 22 23 24 26 26 24 24 23 25 28 36 25
2 2 7 8 4 2 2 6 7 1 14 11 5 5 24 23 21 18 15 10 5 4 4 2 4 8 11 13 15 15 17 19 19 19 20 19 21 23 19 27 31 28 25 29
3 3 8 5 4 4 3 2 3 8 12 13 19 27 26 21 17 12 11 10 7 5 2 3 8 12 14 16 17 21 23 24 24 24 26 27 22 24 30 31 27 28 30 29
8 6 5 5 4 6 6 6 11 13 16 18 26 25 21 19 17 17 12 8 4 1 3 7 12 16 18 19 22 24 26 28 29 29 24 23 29 33 29 25 27 30 29 29
3 4 8 10 8 6 8 8 13 15 19 19 24 22 22 22 18 13 8 3 1 6 9 14 16 19 21 22 25 27 29 29 24 22 26 31 33 26 26 30 29 27 30 33
1 2 8 9 8 11 11 14 17 18 17 17 20 22 20 18 14 9 4 2 7 11 13 15 17 20 23 25 26 29 26 21 22 28 32 30 28 30 31 30 28 26 28 30
6 18 10 11 15 17 19 21 22 22 22 20 19 22 19 14 8 3 3 7 10 12 14 17 20 21 22 25 26 21 21 25 29 29 28 29 31 34 35 35 31 26 25 25
6 12 14 17 24 23 24 24 23 23 24 25 20 16 11 8 2 2 5 8 12 15 17 17 20 23 23 21 21 21 23 28 29 29 31 31 32 37 42 41 28 27 28 33
11 17 19 28 27 26 26 27 26 24 21 17 14 9 4 2 1 4 8 11 12 14 16 19 20 20 21 22 26 27 27 28 31 29 29 33 37 38 32 31 31 34 36 29
22 15 22 29 30 28 27 27 23 19 15 12 8 5 3 0 3 6 7 9 12 16 16 17 18 19 24 27 28 26 28 31 30 29 34 36 33 29 27 27 35 35 33 32
17 15 29 34 32 29 26 22 20 16 11 9 5 3 2 4 4 5 8 12 16 15 15 16 20 23 28 29 28 31 31 30 32 35 35 30 26 25 29 34 31 31 30 28
31 31 34 33 31 27 22 18 14 14 12 7 5 2 2 3 5 8 11 13 12 12 13 17 22 27 30 30 30 30 33 35 34 30 26 25 26 32 30 28 28 30 35 30
19 28 32 35 33 28 23 17 14 12 9 6 3 2 3 5 8 10 12 13 13 14 17 21 27 31 29 28 30 34 34 31 27 24 25 28 29 24 27 29 29 28 31 29
23 32 32 29 26 24 22 18 15 11 8 5 3 3 5 7 9 11 12 14 16 19 22 26 29 29 27 29 33 33 29 25 23 26 29 23 24 27 27 26 28 25 24 26
31 31 31 30 26 22 20 16 13 11 7 4 3 3 5 8 9 10 13 15 17 20 23 26 29 28 29 31 31 30 24 23 27 26 22 23 27 24 26 26 25 25 25 26
36 35 33 29 24 18 14 13 10 7 6 4 2 4 8 9 11 15 17 18 19 22 24 28 28 29 30 30 30 25 24 27 24 21 23 24 25 27 26 26 26 26 26 26
36 33 28 24 22 19 15 12 7 7 5 3 2 6 11 12 14 18 18 17 19 25 27 27 28 27 28 29 26 24 26 23 21 21 21 23 25 25 26 26 27 26 26 26
30 27 25 21 19 18 15 11 9 6 4 2 5 10 13 14 17 16 16 19 25 26 25 26 26 27 27 25 24 25 24 22 20 20 21 22 22 24 26 27 26 26 27 27
29 25 22 19 16 14 14 12 9 6 3 4 7 11 12 14 11 13 17 23 24 24 24 25 25 25 24 24 24 23 22 19 18 19 20 19 21 24 25 26 27 27 27 28
26 23 20 18 16 15 12 10 7 4 1 5 8 10 13 10 11 16 21 23 22 23 23 23 23 22 23 23 23 22 20 18 18 19 19 19 22 24 24 25 26 27 28 28
24 21 19 16 15 12 8 5 3 3 5 7 7 11 11 12 15 19 22 21 21 22 21 21 21 22 22 22 21 20 20 18 18 17 18 19 22 23 24 25 26 27 27 28
22 19 20 18 13 8 6 4 2 3 5 6 9 10 13 15 17 20 19 19 19 19 19 19 20 21 22 21 21 20 20 18 17 17 18 20 21 22 23 25 26 26 27 27
Wind_Direction
229 222 190 196 193 190 194 215 187 253 224 254 161 141 215 163 159 158 159 159 160 159 160 162 165 176 215 270 290 307 321 324 325 319 312 308 308 318 324 329 327 325 326 327
294 242 224 237 239 216 221 245 247 261 272 266 268 291 201 172 155 149 153 159 160 160 162 169 180 224 274 298 313 318 320 324 316 310 309 307 313 321 325 327 323 322 318 316
255 338 9 328 236 219 202 205 177 213 245 274 260 239 181 161 163 157 161 161 164 168 176 192 223 275 298 316 323 328 333 327 315 309 306 310 317 322 325 324 317 313 309 315
219 18 323 240 272 236 222 251 215 272 275 246 215 117 159 168 161 159 163 165 165 170 179 203 274 304 318 325 332 338 336 319 310 308 313 319 322 322 321 312 313 310 310 315
143 203 289 298 31 206 186 292 357 271 296 135 123 117 102 155 166 163 164 165 166 175 193 227 293 310 324 336 328 319 320 319 317 319 321 322 321 319 312 309 308 312 313 315
130 148 231 241 256 5 75 289 325 305 166 151 144 109 162 153 158 153 156 157 158 168 199 330 348 332 322 318 317 322 325 324 326 325 323 322 321 316 311 304 310 315 316 305
136 205 283 249 219 79 105 241 341 317 164 149 102 183 154 152 146 146 144 143 140 91 65 45 319 310 313 317 320 320 313 311 311 310 310 313 323 317 309 316 317 317 309 307
94 82 272 197 114 180 189 91 165 146 157 131 129 139 143 143 135 131 119 110 108 117 91 339 319 317 322 320 318 317 316 315 315 315 315 317 315 311 317 321 316 311 312 313
177 212 233 203 214 161 175 170 168 155 144 145 141 139 138 132 125 122 128 130 136 187 317 318 317 319 317 322 320 318 317 318 319 319 320 319 321 324 326 323 325 323 323 320
98 230 183 162 161 189 183 204 180 166 156 154 143 139 131 130 135 137 134 126 338 309 312 314 318 322 325 321 316 316 318 320 321 321 323 326 326 328 329 330 330 323 318 317
243 39 157 193 197 186 171 169 158 151 149 145 141 139 145 134 130 125 119 354 319 320 324 325 325 324 320 318 319 322 322 323 326 327 329 327 326 327 329 329 329 321 318 318
212 196 188 197 182 174 161 153 152 152 142 145 154 145 148 129 126 125 321 314 320 330 331 330 326 324 324 325 326 328 324 325 332 332 328 326 327 327 327 331 327 325 325 323
186 188 198 163 158 163 156 154 153 150 147 142 136 145 148 132 116 307 314 328 336 337 332 330 328 329 333 336 334 331 334 336 332 327 322 322 325 331 328 325 331 332 328 327
190 161 136 159 150 158 157 148 149 141 138 139 140 138 135 134 244 325 339 341 335 335 335 333 335 342 344 343 338 336 331 329 329 325 322 324 326 327 327 330 330 326 328 328
167 186 173 161 153 150 153 153 149 143 145 139 138 136 140 131 343 344 343 338 340 340 340 342 348 346 340 336 331 326 324 326 326 324 326 327 328 331 332 325 324 328 328 329
172 164 159 159 154 153 156 158 155 147 153 144 137 123 70 16 11 356 351 348 345 352 348 345 344 341 333 330 326 324 326 328 328 327 328 332 337 331 321 326 332 331 332 328
147 144 157 154 156 156 160 162 162 157 151 154 145 104 47 24 3 354 353 352 353 347 344 340 339 333 330 330 330 333 333 331 331 333 337 335 324 322 332 336 335 326 325 333
190 172 171 167 161 159 156 158 159 158 160 154 130 89 27 9 2 352 347 343 341 343 341 338 333 332 335 335 335 335 335 336 338 340 332 327 331 342 338 331 331 336 328 329
172 165 164 164 164 162 160 159 160 162 155 142 104 58 23 0 355 349 344 338 343 341 337 333 334 336 335 336 335 337 339 341 340 332 334 341 344 335 341 341 335 339 339 342
156 161 161 157 160 164 162 165 163 158 144 122 94 53 13 4 358 349 349 348 339 334 333 337 337 336 335 336 339 340 344 338 334 339 344 343 338 348 343 349 351 349 351 354
156 156 156 156 157 162 165 157 155 146 132 117 76 37 18 8 357 355 347 339 339 338 337 337 336 335 336 337 340 341 339 338 341 345 340 346 349 351 356 358 358 357 356 353
157 157 157 160 159 153 155 157 168 154 139 129 52 13 4 357 348 341 340 343 342 338 335 336 336 336 335 337 340 340 340 342 344 342 349 353 353 356 359 2 357 355 353 354
156 157 155 155 156 156 154 153 144 135 126 81 12 358 350 341 332 335 345 345 337 335 335 335 336 334 335 338 340 340 342 345 348 350 354 354 357 358 2 358 355 353 354 355
152 151 151 152 153 152 145 136 128 122 90 17 350 333 324 326 330 341 339 335 336 336 337 336 335 335 338 340 342 343 345 347 348 352 355 357 358 360 359 356 357 356 357 358
152 151 150 148 146 143 136 135 136 132 325 326 318 311 327 343 345 341 336 336 337 337 337 337 337 338 341 344 344 345 346 346 349 353 355 356 357 358 358 358 358 357 357 357
151 146 141 144 146 142 135 141 164 219 285 297 306 328 345 343 338 336 337 337 337 337 338 341 341 343 346 346 347 347 347 346 350 353 353 353 355 356 358 358 358 357 357 358
149 149 148 147 147 150 158 180 224 274 290 308 330 335 333 331 332 336 335 335 337 339 343 344 345 347 348 348 349 351 350 350 350 349 351 352 354 355 356 358 357 358 357 359